TimeEDT,TemperatureF,Dew PointF,Humidity,Sea Level PressureIn,VisibilityMPH,Wind Direction,Wind SpeedMPH,Gust SpeedMPH,PrecipitationIn,Events,Conditions,WindDirDegrees,DateUTC
12:53 AM,62.1,57.9,86,29.91,4.0,South,11.5,-,0.05,Rain,Rain,170,2013-06-07 04:53:00
1:04 AM,60.8,57.2,88,29.90,4.0,SSE,8.1,-,0.02,Rain,Rain,150,2013-06-07 05:04:00
1:07 AM,60.8,59.0,94,29.90,4.0,SE,10.4,-,0.03,Rain,Rain,140,2013-06-07 05:07:00
1:19 AM,60.8,59.0,94,29.90,3.0,ESE,8.1,-,0.05,Rain,Rain,110,2013-06-07 05:19:00
1:53 AM,61.0,59.0,93,29.89,6.0,East,4.6,-,0.09,Rain,Rain,90,2013-06-07 05:53:00
2:23 AM,62.6,60.8,94,29.87,5.0,East,8.1,-,0.02,Rain,Light Rain,100,2013-06-07 06:23:00
2:30 AM,62.6,60.8,94,29.87,3.0,East,9.2,-,0.06,Rain,Heavy Rain,100,2013-06-07 06:30:00
2:36 AM,62.6,60.8,94,29.87,2.0,East,9.2,-,0.10,Rain,Heavy Rain,100,2013-06-07 06:36:00
2:42 AM,62.6,60.8,94,29.86,3.0,East,9.2,-,0.10,Rain,Light Rain,100,2013-06-07 06:42:00
2:53 AM,62.1,61.0,96,29.86,5.0,East,6.9,-,0.11,Rain,Light Rain,90,2013-06-07 06:53:00
3:00 AM,62.6,60.8,94,29.86,5.0,East,6.9,-,0.00,Rain,Light Rain,90,2013-06-07 07:00:00
3:53 AM,63.0,60.1,90,29.84,8.0,ENE,6.9,-,0.01,Rain,Light Rain,70,2013-06-07 07:53:00
4:05 AM,62.6,60.8,94,29.84,1.8,East,6.9,-,0.10,Rain,Heavy Rain,80,2013-06-07 08:05:00
4:18 AM,62.6,60.8,94,29.84,3.0,East,5.8,-,0.13,Rain,Light Rain,80,2013-06-07 08:18:00
4:53 AM,63.0,61.0,93,29.82,6.0,ENE,6.9,-,0.15,Rain,Light Rain,60,2013-06-07 08:53:00
5:10 AM,62.6,60.8,94,29.82,2.0,NE,5.8,-,0.03,Rain,Rain,50,2013-06-07 09:10:00
5:31 AM,62.6,60.8,94,29.82,1.8,ENE,8.1,-,0.07,Rain,Rain,60,2013-06-07 09:31:00
5:40 AM,62.6,60.8,94,29.82,2.0,ENE,6.9,-,0.08,Rain,Rain,60,2013-06-07 09:40:00
5:53 AM,63.0,62.1,97,29.82,2.0,ENE,4.6,-,0.10,Rain,Light Rain,60,2013-06-07 09:53:00
6:33 AM,62.6,60.8,94,29.82,1.5,ENE,6.9,-,0.04,Rain,Light Rain,60,2013-06-07 10:33:00
6:50 AM,62.6,60.8,94,29.82,2.5,NE,6.9,-,0.05,Rain,Light Rain,50,2013-06-07 10:50:00
6:53 AM,63.0,61.0,93,29.82,2.5,NE,6.9,-,0.05,Rain,Light Rain,50,2013-06-07 10:53:00
7:53 AM,63.0,61.0,93,29.81,2.0,NE,9.2,-,0.02,Rain,Light Rain,50,2013-06-07 11:53:00
8:00 AM,62.6,60.8,94,29.81,1.5,ENE,8.1,-,0.00,Rain,Light Rain,60,2013-06-07 12:00:00
8:16 AM,62.6,60.8,94,29.81,1.5,ENE,8.1,-,0.00,Rain,Light Rain,60,2013-06-07 12:16:00
8:33 AM,62.6,60.8,94,29.81,1.8,NE,8.1,-,0.01,Rain,Light Rain,50,2013-06-07 12:33:00
8:53 AM,63.0,61.0,93,29.81,1.5,ENE,6.9,-,0.02,Rain,Light Rain,60,2013-06-07 12:53:00
9:53 AM,63.0,61.0,93,29.81,2.0,NE,6.9,-,0.02,Rain,Light Rain,50,2013-06-07 13:53:00
10:14 AM,64.4,62.6,94,29.81,3.0,ENE,8.1,-,0.01,Rain,Light Rain,60,2013-06-07 14:14:00
10:53 AM,64.0,62.1,93,29.80,4.0,ENE,8.1,-,0.03,Rain,Light Rain,60,2013-06-07 14:53:00
11:53 AM,66.0,64.0,93,29.80,4.0,NE,6.9,-,0.06,Rain,Rain,50,2013-06-07 15:53:00
12:53 PM,66.0,64.0,93,29.78,3.0,ENE,8.1,-,0.11,Rain,Rain,60,2013-06-07 16:53:00
1:53 PM,66.0,64.0,93,29.75,6.0,NE,9.2,-,0.08,Rain,Light Rain,40,2013-06-07 17:53:00
2:53 PM,66.0,63.0,90,29.73,5.0,NE,10.4,-,0.06,Rain,Light Rain,50,2013-06-07 18:53:00
3:53 PM,66.0,63.0,90,29.71,9.0,NE,10.4,-,0.03,Rain,Light Rain,50,2013-06-07 19:53:00
4:53 PM,64.9,63.0,93,29.68,5.0,NE,9.2,-,0.05,Rain,Rain,50,2013-06-07 20:53:00
5:53 PM,64.0,62.1,93,29.68,7.0,NNE,5.8,-,0.06,Rain,Light Rain,30,2013-06-07 21:53:00
6:24 PM,64.4,62.6,94,29.65,6.0,NE,11.5,-,0.03,Rain,Light Rain,40,2013-06-07 22:24:00
6:53 PM,64.0,62.1,93,29.64,9.0,NE,11.5,-,0.05,Rain,Light Rain,40,2013-06-07 22:53:00
7:08 PM,64.4,60.8,88,29.64,9.0,NNE,12.7,-,0.00,Rain,Light Rain,30,2013-06-07 23:08:00
7:53 PM,64.0,61.0,90,29.62,10.0,NNE,11.5,-,0.00,Rain,Light Rain,30,2013-06-07 23:53:00
8:53 PM,63.0,60.1,90,29.65,10.0,NNE,10.4,-,N/A,,Overcast,20,2013-06-08 00:53:00
9:53 PM,63.0,60.1,90,29.68,2.5,North,10.4,-,0.02,Rain,Rain,350,2013-06-08 01:53:00
10:19 PM,62.6,60.8,94,29.68,3.0,North,9.2,-,0.01,Rain,Light Rain,360,2013-06-08 02:19:00
10:38 PM,62.6,60.8,94,29.68,5.0,North,10.4,-,0.02,Rain,Light Rain,360,2013-06-08 02:38:00
10:53 PM,63.0,60.1,90,29.68,10.0,North,9.2,-,0.02,Rain,Light Rain,360,2013-06-08 02:53:00
11:46 PM,62.6,60.8,94,29.68,2.5,NNW,9.2,-,0.03,Rain,Rain,330,2013-06-08 03:46:00
11:53 PM,62.1,60.1,93,29.68,2.5,NNW,9.2,-,0.04,Rain,Rain,340,2013-06-08 03:53:00
11:59 PM,62.6,60.8,94,29.68,3.0,North,6.9,-,0.01,Rain,Light Rain,350,2013-06-08 03:59:00